Tracking 25689 objects as of 7-Jul-2022
HD Live streaming from Space Station
objects crossing your sky now

FENGYUN 1C DEB

Track FENGYUN 1C DEB now!
10-day predictions


NORAD ID: 32319
Int'l Code: 1999-025CXL
Perigee: 526.1 km
Apogee: 674.9 km
Inclination: 99.1 °
Period: 96.5 minutes
Semi major axis: 6971 km
RCS: 0.0123 m2 (small)
Launch date: May 10, 1999
Source: People's Republic of China (PRC)
Launch site: Taiyaun Space Center, China (TSC)

Note: This is SATELLITE DEBRIS
aabbcc
Your satellite tracking list
Your tracking list is empty




NASA's NSSDC Master Catalog

Two Line Element Set (TLE):
1 32319U 99025CXL 22187.31649355  .00004974  00000-0  45298-3 0  9994
2 32319  99.1486 212.4215 0106730 184.7258 175.2958 14.91471559485972
Source of the keplerian elements: AFSPC